Weather History for Metropolis, IL

Change the Weather History Date:

Friday, February 14, 2014

  Actual Average (KPAH) Record (KPAH)
Temperature  
Mean Temperature 32 °F 39 °F  
Max Temperature 40 °F 49 °F 72 °F (1990)
Min Temperature 23 °F 29 °F 10 °F (1971)
Degree Days  
Heating Degree Days 34 26  
Month to date heating degree days 388  
Since 1 July heating degree days 2961  
Cooling Degree Days 0 0  
Month to date cooling degree days 0  
Year to date cooling degree days 0  
Moisture  
Dew Point 28 °F    
Average Humidity 85    
Maximum Humidity 99    
Minimum Humidity 65    
Precipitation  
Precipitation 0.19 in 0.14 in 3.48 in (1949)
Month to date precipitation 1.97  
Year to date precipitation 5.65  
Snow  
Snow 0.00 in 0.20 in 4.20 in (1986)
Month to date snowfall 1.8  
Since 1 July snowfall 7.1  
Snow Depth -    
Sea Level Pressure  
Sea Level Pressure 29.78 in    
Wind  
Wind Speed 6 mph (West)    
Max Wind Speed 22 mph    
Max Gust Speed 32 mph    
Visibility 8 miles    
Events Rain    
T = Trace of Precipitation, MM = Missing Value Source: NWS Daily Summary

Daily Weather History Graph

Daily Weather History Graph

Search for Another Location

Airport:

Trip Planner

Search our weather history database for the weather conditions in past years. The results will help you decide how hot, cold, wet, or windy it might be!

Date:

Astronomy

Feb. 14, 2014 Rise Set
Actual Time 6:44 AM CST 5:33 PM CST
Civil Twilight 6:18 AM CST 6:00 PM CST
Nautical Twilight 5:47 AM CST 6:31 PM CST
Astronomical Twilight 5:17 AM CST 7:01 PM CST
Moon 5:36 PM CST (2/14) 6:12 AM CST (2/14)
Length of Visible Light 11h 42m
Length of Day
10h 48m
Full, 100% of the Moon is Illuminated
Feb 14
Full
Feb 14
Full
Feb 22
Last Quarter
Mar 1
New
Mar 8
First Quarter

Hourly Weather History & Observations

Time (CST) Temp. Windchill Dew Point Humidity Pressure Visibility Wind Dir Wind Speed Gust Speed Precip Events Conditions
12:15 AM 36.5 °F 30.3 °F 27.5 °F 70% 29.80 in 10.0 mi WSW 8.1 mph - N/A   Clear
12:35 AM 36.1 °F 29.9 °F 27.5 °F 71% 29.80 in 10.0 mi WSW 8.1 mph - N/A   Clear
12:55 AM 35.6 °F 29.9 °F 27.5 °F 72% 29.80 in 10.0 mi WSW 6.9 mph - N/A   Clear
1:15 AM 35.6 °F 30.7 °F 27.5 °F 72% 29.79 in 10.0 mi WSW 5.8 mph - N/A   Clear
1:35 AM 35.1 °F 31.0 °F 27.3 °F 73% 29.79 in 10.0 mi WSW 4.6 mph - N/A   Clear
2:00 AM 34.7 °F 31.8 °F 27.1 °F 74% 29.79 in 10.0 mi SW 3.5 mph - N/A   Clear
2:15 AM 33.8 °F 30.8 °F 26.8 °F 75% 29.79 in 10.0 mi SW 3.5 mph - N/A   Clear
2:35 AM 32.9 °F - 27.0 °F 79% 29.79 in 10.0 mi Calm Calm - N/A   Clear
2:55 AM 32.0 °F - 27.1 °F 82% 29.79 in 10.0 mi Calm Calm - N/A   Clear
3:15 AM 31.8 °F - 27.0 °F 82% 29.79 in 10.0 mi Calm Calm - N/A   Clear
3:35 AM 31.1 °F - 27.7 °F 87% 29.79 in 10.0 mi Calm Calm - N/A   Clear
3:55 AM 28.8 °F - 25.9 °F 89% 29.78 in 7.0 mi Calm Calm - N/A   Clear
4:15 AM 27.9 °F - 27.3 °F 98% 29.77 in 5.0 mi Calm Calm - N/A   Clear
4:35 AM 26.8 °F - 26.4 °F 99% 29.77 in 3.0 mi Calm Calm - N/A   Clear
4:55 AM 27.1 °F - 26.6 °F 98% 29.77 in 4.0 mi Calm Calm - N/A   Clear
5:15 AM 27.0 °F - 26.6 °F 99% 29.78 in 4.0 mi Calm Calm - N/A   Clear
5:35 AM 26.2 °F - 25.7 °F 98% 29.78 in 3.0 mi Calm Calm - N/A   Clear
5:55 AM 25.7 °F - 25.5 °F 99% 29.77 in 3.0 mi Calm Calm - N/A   Clear
6:15 AM 26.2 °F - 26.1 °F 99% 29.76 in 4.0 mi Calm Calm - N/A   Clear
6:35 AM 26.6 °F - 26.2 °F 99% 29.77 in 4.0 mi Calm Calm - N/A   Clear
6:55 AM 26.6 °F - 26.2 °F 99% 29.78 in 5.0 mi Calm Calm - N/A   Scattered Clouds
7:15 AM 30.2 °F - 28.9 °F 95% 29.78 in 10.0 mi Calm Calm - N/A   Scattered Clouds
7:35 AM 30.2 °F - 28.4 °F 93% 29.78 in 7.0 mi Calm Calm - N/A   Mostly Cloudy
7:55 AM 30.9 °F - 28.0 °F 89% 29.79 in 7.0 mi Calm Calm - N/A   Overcast
8:15 AM 30.9 °F 27.5 °F 28.8 °F 92% 29.80 in 7.0 mi NE 3.5 mph - N/A   Overcast
8:35 AM 31.8 °F 27.3 °F 29.5 °F 91% 29.78 in 7.0 mi East 4.6 mph - N/A   Overcast
8:55 AM 32.4 °F - 29.7 °F 90% 29.77 in 7.0 mi Calm Calm - N/A   Overcast
9:15 AM 34.0 °F 29.8 °F 30.2 °F 86% 29.76 in 10.0 mi SSE 4.6 mph - N/A   Overcast
9:35 AM 35.4 °F 29.7 °F 30.6 °F 82% 29.74 in 10.0 mi SSE 6.9 mph - N/A   Mostly Cloudy
9:55 AM 36.0 °F 30.3 °F 30.6 °F 81% 29.70 in 10.0 mi SE 6.9 mph - N/A   Overcast
10:15 AM 37.6 °F 31.6 °F 29.3 °F 72% 29.68 in 10.0 mi SSE 8.1 mph - N/A   Overcast
10:35 AM 38.5 °F 35.0 °F 29.3 °F 70% 29.66 in 10.0 mi SE 4.6 mph - N/A   Overcast
10:55 AM 38.7 °F 36.3 °F 29.3 °F 69% 29.66 in 10.0 mi SSE 3.5 mph - N/A   Overcast
11:15 AM 39.2 °F 35.9 °F 29.1 °F 67% 29.67 in 10.0 mi South 4.6 mph - N/A   Overcast
11:35 AM 40.1 °F 35.3 °F 29.3 °F 65% 29.68 in 10.0 mi SSW 6.9 mph - N/A Rain Rain
11:55 AM 39.2 °F 33.6 °F 30.6 °F 71% 29.67 in 10.0 mi SSW 8.1 mph - N/A Rain Light Rain
12:15 PM 38.7 °F - 32.0 °F 77% 29.65 in 5.0 mi Calm Calm - 0.01 in Rain Rain
12:35 PM 38.1 °F 32.9 °F 33.1 °F 82% 29.67 in 7.0 mi WSW 6.9 mph - 0.03 in Rain Light Rain
12:55 PM 37.6 °F 31.6 °F 34.0 °F 87% 29.67 in 5.0 mi West 8.1 mph - 0.05 in Rain Light Rain
1:15 PM 37.8 °F 30.7 °F 36.1 °F 94% 29.65 in 5.0 mi SW 10.4 mph - 0.01 in Rain Rain
1:35 PM 37.8 °F 30.7 °F 36.7 °F 96% 29.64 in 4.0 mi SSW 10.4 mph - 0.04 in Rain Rain
1:55 PM 38.3 °F 32.5 °F 36.9 °F 95% 29.63 in 4.0 mi SSW 8.1 mph - 0.08 in Rain Rain
2:15 PM 38.1 °F 31.7 °F 37.2 °F 97% 29.62 in 3.0 mi SW 9.2 mph - 0.02 in Rain Rain
2:35 PM 38.1 °F 32.3 °F 37.0 °F 96% 29.62 in 4.0 mi SW 8.1 mph - 0.05 in Rain Rain
2:55 PM 37.9 °F 32.1 °F 37.4 °F 98% 29.62 in 4.0 mi WSW 8.1 mph - 0.06 in Rain Light Rain
3:15 PM 37.6 °F 32.3 °F 37.0 °F 98% 29.63 in 5.0 mi West 6.9 mph - N/A   Light Drizzle
3:35 PM 37.0 °F 30.4 °F 36.5 °F 98% 29.65 in 3.0 mi West 9.2 mph - N/A   Overcast
3:55 PM 36.9 °F 30.1 °F 36.7 °F 99% 29.66 in 2.0 mi West 9.2 mph - N/A   Overcast
4:15 PM 37.2 °F 30.0 °F 36.9 °F 99% 29.67 in 4.0 mi WNW 10.4 mph - N/A   Overcast
4:35 PM 36.5 °F 25.4 °F 33.4 °F 89% 29.70 in 5.0 mi NW 21.9 mph 32.2 mph N/A   Overcast
4:55 PM 32.0 °F 21.2 °F 31.1 °F 96% 29.73 in 4.0 mi NW 16.1 mph 25.3 mph N/A   Overcast
5:15 PM 30.9 °F 18.7 °F 30.0 °F 96% 29.76 in 4.0 mi NW 19.6 mph 27.6 mph N/A   Overcast
5:35 PM 30.0 °F 17.9 °F 28.8 °F 95% 29.78 in 5.0 mi NW 18.4 mph 25.3 mph N/A   Overcast
5:55 PM 28.9 °F 17.3 °F 27.1 °F 93% 29.80 in 7.0 mi NNW 16.1 mph 25.3 mph N/A   Overcast
6:15 PM 28.9 °F 17.3 °F 26.1 °F 89% 29.81 in 7.0 mi NNW 16.1 mph 26.5 mph N/A   Overcast
6:35 PM 28.6 °F 17.2 °F 25.0 °F 86% 29.84 in 10.0 mi NNW 15.0 mph 27.6 mph N/A   Overcast
6:55 PM 28.4 °F 17.0 °F 24.4 °F 85% 29.86 in 10.0 mi NNW 15.0 mph 31.1 mph N/A   Overcast
7:15 PM 28.2 °F 15.2 °F 24.4 °F 86% 29.87 in 10.0 mi NNW 19.6 mph - N/A   Overcast
7:35 PM 27.9 °F 16.3 °F 23.9 °F 85% 29.89 in 10.0 mi NW 15.0 mph - N/A   Overcast
7:55 PM 27.5 °F 16.3 °F 23.0 °F 83% 29.91 in 10.0 mi NNW 13.8 mph 24.2 mph N/A   Overcast
8:15 PM 27.3 °F 15.2 °F 22.5 °F 82% 29.92 in 10.0 mi NW 16.1 mph 24.2 mph N/A   Overcast
8:35 PM 27.1 °F 15.4 °F 20.8 °F 77% 29.93 in 10.0 mi NNW 15.0 mph 20.7 mph N/A   Overcast
8:55 PM 27.0 °F 14.3 °F 21.0 °F 78% 29.95 in 10.0 mi NNW 17.3 mph 26.5 mph N/A   Overcast
9:15 PM 27.0 °F 14.3 °F 19.8 °F 74% 29.96 in 10.0 mi NNW 17.3 mph 23.0 mph N/A   Overcast
9:35 PM 26.6 °F 16.2 °F 19.2 °F 74% 29.96 in 10.0 mi NNW 11.5 mph - N/A   Overcast
9:55 PM 26.6 °F 16.8 °F 19.4 °F 74% 29.97 in 10.0 mi NNW 10.4 mph - N/A   Overcast
10:15 PM 26.4 °F 14.0 °F 18.0 °F 70% 29.99 in 10.0 mi NNW 16.1 mph 21.9 mph N/A   Overcast
10:35 PM 24.6 °F 11.3 °F 14.7 °F 66% 30.01 in 10.0 mi NNW 17.3 mph 25.3 mph N/A   Scattered Clouds
10:55 PM 24.4 °F 12.4 °F 15.3 °F 68% 30.01 in 10.0 mi NNW 13.8 mph 19.6 mph N/A   Mostly Cloudy
11:15 PM 24.3 °F 12.7 °F 14.9 °F 68% 30.03 in 10.0 mi NNW 12.7 mph 20.7 mph N/A   Overcast
11:35 PM 23.9 °F 12.9 °F 14.7 °F 68% 30.03 in 10.0 mi NNW 11.5 mph 17.3 mph N/A   Overcast
11:55 PM 23.9 °F 15.8 °F 14.7 °F 68% 30.04 in 10.0 mi North 6.9 mph - N/A   Overcast